TimePST,TemperatureF,Dew PointF,Humidity,Sea Level PressureIn,VisibilityMPH,Wind Direction,Wind SpeedMPH,Gust SpeedMPH,PrecipitationIn,Events,Conditions,WindDirDegrees,DateUTC
12:53 AM,63.0,53.1,70,29.97,10.0,SE,17.3,-,N/A,,Mostly Cloudy,140,2012-11-30 08:53:00
1:53 AM,63.0,53.1,70,29.95,10.0,SSE,20.7,26.5,N/A,,Overcast,150,2012-11-30 09:53:00
2:53 AM,62.1,54.0,75,29.95,10.0,SE,20.7,-,N/A,,Overcast,140,2012-11-30 10:53:00
3:53 AM,60.1,55.0,83,29.93,10.0,SE,17.3,-,0.00,,Overcast,130,2012-11-30 11:53:00
4:53 AM,60.1,54.0,80,29.94,10.0,SE,17.3,-,0.00,,Overcast,140,2012-11-30 12:53:00
5:53 AM,61.0,54.0,78,29.92,10.0,SE,18.4,-,0.00,,Overcast,130,2012-11-30 13:53:00
6:53 AM,60.1,54.0,80,29.94,6.0,SE,17.3,-,0.01,Rain,Rain,130,2012-11-30 14:53:00
7:53 AM,59.0,55.0,87,29.94,4.0,SE,19.6,27.6,0.09,Rain,Light Rain,130,2012-11-30 15:53:00
8:53 AM,57.9,55.0,90,29.92,10.0,ESE,21.9,28.8,0.02,Rain,Light Rain,110,2012-11-30 16:53:00
9:53 AM,59.0,55.9,90,29.95,4.0,ESE,20.7,28.8,0.01,Rain,Light Rain,120,2012-11-30 17:53:00
10:53 AM,59.0,55.0,87,29.94,10.0,ESE,17.3,26.5,0.03,Rain,Light Rain,120,2012-11-30 18:53:00
11:40 AM,60.8,55.4,82,29.94,1.8,SE,18.4,-,0.03,Rain,Rain,140,2012-11-30 19:40:00
11:53 AM,60.1,55.9,86,29.94,1.5,SE,10.4,-,0.08,Rain,Rain,130,2012-11-30 19:53:00
12:18 PM,60.8,57.2,88,29.97,2.0,SSE,4.6,-,0.08,Rain,Heavy Rain,160,2012-11-30 20:18:00
12:34 PM,60.8,55.4,82,29.98,4.0,SSE,8.1,-,0.11,Rain,Light Rain,150,2012-11-30 20:34:00
12:53 PM,60.1,57.0,90,29.99,4.0,SSE,3.5,-,0.14,Rain,Rain,160,2012-11-30 20:53:00
1:53 PM,60.1,57.0,90,29.95,5.0,ESE,11.5,-,0.10,Rain,Light Rain,120,2012-11-30 21:53:00
2:53 PM,60.1,57.0,90,29.95,9.0,ESE,10.4,-,0.02,Rain,Light Rain,110,2012-11-30 22:53:00
3:53 PM,60.1,57.0,90,29.97,10.0,East,9.2,-,0.00,,Overcast,100,2012-11-30 23:53:00
4:53 PM,60.1,55.9,86,30.00,8.0,ESE,4.6,-,0.00,Rain,Light Rain,110,2012-12-01 00:53:00
5:53 PM,59.0,55.0,87,30.02,10.0,SSE,8.1,-,0.00,,Overcast,160,2012-12-01 01:53:00
7:53 PM,57.9,55.0,90,30.04,8.0,Calm,Calm,-,0.00,Rain,Light Rain,0,2012-12-01 03:53:00
8:46 PM,57.2,55.4,94,30.05,9.0,South,3.5,-,0.00,,Overcast,180,2012-12-01 04:46:00
8:53 PM,57.0,55.0,93,30.06,8.0,South,3.5,-,0.00,,Overcast,180,2012-12-01 04:53:00
9:04 PM,57.2,55.4,94,30.05,8.0,SSE,4.6,-,N/A,,Overcast,150,2012-12-01 05:04:00
9:53 PM,57.9,55.9,93,30.06,5.0,SE,5.8,-,N/A,,Overcast,140,2012-12-01 05:53:00
10:53 PM,57.0,54.0,89,30.07,9.0,SE,6.9,-,N/A,,Mostly Cloudy,130,2012-12-01 06:53:00
11:10 PM,55.4,53.6,94,30.08,7.0,SE,4.6,-,N/A,,Scattered Clouds,130,2012-12-01 07:10:00
11:53 PM,55.9,53.1,90,30.08,9.0,SE,6.9,-,N/A,,Partly Cloudy,130,2012-12-01 07:53:00